Time,TemperatureF,DewpointF,PressureIn,WindDirection,WindDirectionDegrees,WindSpeedMPH,WindSpeedGustMPH,Humidity,HourlyPrecipIn,Conditions,Clouds,dailyrainin,SolarRadiationWatts/m^2,SoftwareType,DateUTC
2013-05-03 00:01:00,44.0,17.0,-100.00,South,185,1.0,4.0,33,-99.99,,,0.00,0.120000,,2013-05-03 06:01:00,
2013-05-03 00:11:00,44.0,17.0,-100.00,South,185,1.0,4.0,33,-99.99,,,0.00,0.120000,,2013-05-03 06:11:00,
2013-05-03 00:42:00,42.0,19.0,-100.00,WSW,256,4.0,6.0,39,-99.99,,,-99.99,0.120000,,2013-05-03 06:42:00,
2013-05-03 00:52:00,42.0,19.0,-100.00,WSW,256,4.0,6.0,39,-99.99,,,-99.99,0.120000,,2013-05-03 06:52:00,
2013-05-03 01:01:00,42.0,19.0,-100.00,WSW,256,4.0,6.0,39,-99.99,,,-99.99,0.120000,,2013-05-03 07:01:00,
2013-05-03 01:11:00,42.0,19.0,-100.00,WSW,256,4.0,6.0,39,-99.99,,,-99.99,0.120000,,2013-05-03 07:11:00,
2013-05-03 01:42:00,41.0,21.0,-100.00,West,264,3.0,5.0,43,-99.99,,,0.00,0.120000,,2013-05-03 07:42:00,
2013-05-03 01:52:00,41.0,21.0,-100.00,West,264,3.0,5.0,43,-99.99,,,0.00,0.120000,,2013-05-03 07:52:00,
2013-05-03 02:01:00,41.0,21.0,-100.00,West,264,3.0,5.0,43,-99.99,,,0.00,0.120000,,2013-05-03 08:01:00,
2013-05-03 02:11:00,41.0,21.0,-100.00,West,264,3.0,5.0,43,-99.99,,,0.00,0.120000,,2013-05-03 08:11:00,
2013-05-03 02:42:00,41.0,25.0,-100.00,West,259,1.0,3.0,52,-99.99,,,0.00,0.120000,,2013-05-03 08:42:00,
2013-05-03 02:52:00,41.0,25.0,-100.00,West,259,1.0,3.0,52,-99.99,,,0.00,0.120000,,2013-05-03 08:52:00,
2013-05-03 03:01:00,41.0,25.0,-100.00,West,259,1.0,3.0,52,-99.99,,,0.00,0.120000,,2013-05-03 09:01:00,
2013-05-03 03:11:00,41.0,25.0,-100.00,West,259,1.0,3.0,52,-99.99,,,0.00,0.120000,,2013-05-03 09:11:00,
2013-05-03 03:42:00,42.0,23.0,-100.00,SW,220,4.0,7.0,45,-99.99,,,-99.99,0.120000,,2013-05-03 09:42:00,
2013-05-03 03:53:00,42.0,23.0,-100.00,SW,220,4.0,7.0,45,-99.99,,,-99.99,0.120000,,2013-05-03 09:53:00,
2013-05-03 04:02:00,42.0,23.0,-100.00,SW,220,4.0,7.0,45,-99.99,,,-99.99,0.120000,,2013-05-03 10:02:00,
2013-05-03 04:12:00,42.0,23.0,-100.00,SW,220,4.0,7.0,45,-99.99,,,-99.99,0.120000,,2013-05-03 10:12:00,
2013-05-03 04:42:00,42.0,24.0,-100.00,SSW,213,2.0,4.0,48,-99.99,,,-99.99,0.120000,,2013-05-03 10:42:00,
2013-05-03 04:52:00,42.0,24.0,-100.00,SSW,213,2.0,4.0,48,-99.99,,,-99.99,0.120000,,2013-05-03 10:52:00,
2013-05-03 05:02:00,42.0,24.0,-100.00,SSW,213,2.0,4.0,48,-99.99,,,-99.99,0.120000,,2013-05-03 11:02:00,
2013-05-03 05:11:00,42.0,24.0,-100.00,SSW,213,2.0,4.0,48,-99.99,,,-99.99,0.120000,,2013-05-03 11:11:00,
2013-05-03 05:42:00,40.0,24.0,-100.00,NE,48,1.0,4.0,53,-99.99,,,0.00,0.120000,,2013-05-03 11:42:00,
2013-05-03 05:52:00,40.0,24.0,-100.00,NE,48,1.0,4.0,53,-99.99,,,0.00,0.120000,,2013-05-03 11:52:00,
2013-05-03 06:01:00,40.0,24.0,-100.00,NE,48,1.0,4.0,53,-99.99,,,0.00,0.120000,,2013-05-03 12:01:00,
2013-05-03 06:11:00,40.0,24.0,-100.00,NE,48,1.0,4.0,53,-99.99,,,0.00,0.120000,,2013-05-03 12:11:00,
2013-05-03 07:42:00,40.0,27.0,-100.00,ESE,108,2.0,3.0,59,-99.99,,,0.00,36.959999,,2013-05-03 13:42:00,
2013-05-03 07:52:00,40.0,27.0,-100.00,ESE,108,2.0,3.0,59,-99.99,,,0.00,36.959999,,2013-05-03 13:52:00,
2013-05-03 08:01:00,40.0,27.0,-100.00,ESE,108,2.0,3.0,59,-99.99,,,0.00,36.959999,,2013-05-03 14:01:00,
2013-05-03 08:11:00,40.0,27.0,-100.00,ESE,108,2.0,3.0,59,-99.99,,,0.00,36.959999,,2013-05-03 14:11:00,
2013-05-03 08:42:00,42.0,25.0,-100.00,ESE,108,2.0,4.0,50,-99.99,,,-99.99,85.070000,,2013-05-03 14:42:00,
2013-05-03 08:52:00,42.0,25.0,-100.00,ESE,108,2.0,4.0,50,-99.99,,,-99.99,85.070000,,2013-05-03 14:52:00,
2013-05-03 09:01:00,42.0,25.0,-100.00,ESE,108,2.0,4.0,50,-99.99,,,-99.99,85.070000,,2013-05-03 15:01:00,
2013-05-03 09:11:00,42.0,25.0,-100.00,ESE,108,2.0,4.0,50,-99.99,,,-99.99,85.070000,,2013-05-03 15:11:00,
2013-05-03 09:43:00,45.0,22.0,-100.00,WNW,295,4.0,5.0,39,-99.99,,,0.00,141.210007,,2013-05-03 15:43:00,
2013-05-03 09:53:00,45.0,22.0,-100.00,WNW,295,4.0,5.0,39,-99.99,,,0.00,141.210007,,2013-05-03 15:53:00,
2013-05-03 10:03:00,45.0,22.0,-100.00,WNW,295,4.0,5.0,39,-99.99,,,0.00,141.210007,,2013-05-03 16:03:00,
2013-05-03 10:12:00,45.0,22.0,-100.00,WNW,295,4.0,5.0,39,-99.99,,,0.00,141.210007,,2013-05-03 16:12:00,
2013-05-03 10:42:00,49.0,21.0,-100.00,ENE,74,2.0,7.0,33,-99.99,,,0.00,218.960007,,2013-05-03 16:42:00,
2013-05-03 10:52:00,49.0,21.0,-100.00,ENE,74,2.0,7.0,33,-99.99,,,0.00,218.960007,,2013-05-03 16:52:00,
2013-05-03 11:02:00,49.0,21.0,-100.00,ENE,74,2.0,7.0,33,-99.99,,,0.00,218.960007,,2013-05-03 17:02:00,
2013-05-03 11:11:00,49.0,21.0,-100.00,ENE,74,2.0,7.0,33,-99.99,,,0.00,218.960007,,2013-05-03 17:11:00,
2013-05-03 11:42:00,51.0,25.0,-100.00,SSW,195,8.0,13.0,35,-99.99,,,0.00,494.750000,,2013-05-03 17:42:00,
2013-05-03 11:52:00,51.0,25.0,-100.00,SSW,195,8.0,13.0,35,-99.99,,,0.00,494.750000,,2013-05-03 17:52:00,
2013-05-03 12:01:00,51.0,25.0,-100.00,SSW,195,8.0,13.0,35,-99.99,,,0.00,494.750000,,2013-05-03 18:01:00,
2013-05-03 12:11:00,51.0,25.0,-100.00,SSW,195,8.0,13.0,35,-99.99,,,0.00,494.750000,,2013-05-03 18:11:00,
2013-05-03 12:42:00,52.0,23.0,-100.00,NW,317,5.0,11.0,32,-99.99,,,0.00,554.369995,,2013-05-03 18:42:00,
2013-05-03 12:52:00,52.0,23.0,-100.00,NW,317,5.0,11.0,32,-99.99,,,0.00,554.369995,,2013-05-03 18:52:00,
2013-05-03 13:01:00,52.0,23.0,-100.00,NW,317,5.0,11.0,32,-99.99,,,0.00,554.369995,,2013-05-03 19:01:00,
2013-05-03 13:11:00,52.0,23.0,-100.00,NW,317,5.0,11.0,32,-99.99,,,0.00,554.369995,,2013-05-03 19:11:00,
2013-05-03 13:32:00,52.0,26.0,-100.00,North,8,11.0,20.0,36,-99.99,,,0.00,523.219971,,2013-05-03 19:32:00,
2013-05-03 13:41:00,52.0,26.0,-100.00,North,8,11.0,20.0,36,-99.99,,,0.00,523.219971,,2013-05-03 19:41:00,
2013-05-03 13:52:00,52.0,26.0,-100.00,North,8,11.0,20.0,36,-99.99,,,0.00,523.219971,,2013-05-03 19:52:00,
2013-05-03 14:02:00,52.0,26.0,-100.00,North,8,11.0,20.0,36,-99.99,,,0.00,523.219971,,2013-05-03 20:02:00,
2013-05-03 14:11:00,52.0,26.0,-100.00,North,8,11.0,20.0,36,-99.99,,,0.00,523.219971,,2013-05-03 20:11:00,
2013-05-03 14:41:00,51.0,30.0,-100.00,North,2,10.0,17.0,44,-99.99,,,0.00,435.480011,,2013-05-03 20:41:00,
2013-05-03 14:52:00,51.0,30.0,-100.00,North,2,10.0,17.0,44,-99.99,,,0.00,435.480011,,2013-05-03 20:52:00,
2013-05-03 15:01:00,51.0,30.0,-100.00,North,2,10.0,17.0,44,-99.99,,,0.00,435.480011,,2013-05-03 21:01:00,
2013-05-03 15:11:00,51.0,30.0,-100.00,North,2,10.0,17.0,44,-99.99,,,0.00,435.480011,,2013-05-03 21:11:00,
2013-05-03 15:33:00,52.0,30.0,-100.00,NNE,33,8.0,15.0,43,-99.99,,,0.00,528.099976,,2013-05-03 21:33:00,
2013-05-03 15:42:00,52.0,30.0,-100.00,NNE,33,8.0,15.0,43,-99.99,,,0.00,528.099976,,2013-05-03 21:42:00,
2013-05-03 15:53:00,52.0,30.0,-100.00,NNE,33,8.0,15.0,43,-99.99,,,0.00,528.099976,,2013-05-03 21:53:00,
2013-05-03 16:02:00,52.0,30.0,-100.00,NNE,33,8.0,15.0,43,-99.99,,,0.00,528.099976,,2013-05-03 22:02:00,
2013-05-03 16:12:00,52.0,30.0,-100.00,NNE,33,8.0,15.0,43,-99.99,,,0.00,528.099976,,2013-05-03 22:12:00,
2013-05-03 19:41:00,44.0,41.0,-100.00,NNE,19,10.0,18.0,89,-99.99,,,0.00,49.970001,,2013-05-04 01:41:00,
2013-05-03 19:52:00,44.0,41.0,-100.00,NNE,19,10.0,18.0,89,-99.99,,,0.00,49.970001,,2013-05-04 01:52:00,
2013-05-03 20:02:00,44.0,41.0,-100.00,NNE,19,10.0,18.0,89,-99.99,,,0.00,49.970001,,2013-05-04 02:02:00,
2013-05-03 20:11:00,44.0,41.0,-100.00,NNE,19,10.0,18.0,89,-99.99,,,0.00,49.970001,,2013-05-04 02:11:00,
2013-05-03 20:41:00,44.0,41.0,-100.00,North,9,6.0,12.0,89,-99.99,,,0.00,21.730000,,2013-05-04 02:41:00,
2013-05-03 20:52:00,44.0,41.0,-100.00,North,9,6.0,12.0,89,-99.99,,,0.00,21.730000,,2013-05-04 02:52:00,
2013-05-03 21:02:00,44.0,41.0,-100.00,North,9,6.0,12.0,89,-99.99,,,0.00,21.730000,,2013-05-04 03:02:00,
2013-05-03 21:11:00,44.0,41.0,-100.00,North,9,6.0,12.0,89,-99.99,,,0.00,21.730000,,2013-05-04 03:11:00,
2013-05-03 21:43:00,42.0,39.0,-100.00,NNE,13,7.0,10.0,88,-99.99,,,0.00,0.230000,,2013-05-04 03:43:00,
2013-05-03 21:53:00,42.0,39.0,-100.00,NNE,13,7.0,10.0,88,-99.99,,,0.00,0.230000,,2013-05-04 03:53:00,
2013-05-03 22:02:00,42.0,39.0,-100.00,NNE,13,7.0,10.0,88,-99.99,,,0.00,0.230000,,2013-05-04 04:02:00,
2013-05-03 22:12:00,42.0,39.0,-100.00,NNE,13,7.0,10.0,88,-99.99,,,0.00,0.230000,,2013-05-04 04:12:00,
2013-05-03 22:42:00,42.0,39.0,-100.00,NNE,15,8.0,11.0,88,-99.99,,,0.00,0.120000,,2013-05-04 04:42:00,
2013-05-03 22:52:00,42.0,39.0,-100.00,NNE,15,8.0,11.0,88,-99.99,,,0.00,0.120000,,2013-05-04 04:52:00,
2013-05-03 23:02:00,42.0,39.0,-100.00,NNE,15,8.0,11.0,88,-99.99,,,0.00,0.120000,,2013-05-04 05:02:00,
2013-05-03 23:11:00,42.0,39.0,-100.00,NNE,15,8.0,11.0,88,-99.99,,,0.00,0.120000,,2013-05-04 05:11:00,
2013-05-03 23:42:00,41.0,39.0,-100.00,North,4,7.0,10.0,93,-99.99,,,0.00,0.120000,,2013-05-04 05:42:00,
2013-05-03 23:52:00,41.0,39.0,-100.00,North,4,7.0,10.0,93,-99.99,,,0.00,0.120000,,2013-05-04 05:52:00,